#timestamp,LO_Frequency,Hit,StdDev 
1607720415.8,286047000.1,N
1607720435.6,286047000.2,N
1607720455.5,286047001.6,N
1607720475.3,286046999.7,N
1607720495.1,286047000.4,N
1607720515.9,286047000.1,N
1607720535.7,286047000.0,N
1607720555.5,286047001.0,N
1607720575.4,286047000.9,N
1607720595.2,286046998.6,N
1607720615.0,286046998.2,N
1607720615.9,286046998.2,N
1607720635.8,286046998.4,N
1607720655.6,286046998.9,N
1607720675.4,286046998.1,N
1607720695.3,286046998.4,N
1607720715.1,286046998.4,N
1607720735.8,286046998.3,N
1607720755.7,286047001.1,N
1607720775.5,286046998.5,N
1607720795.3,286046999.3,N
1607720815.2,286046998.9,N
1607720835.9,286046998.8,N
1607720855.7,286046998.6,N
1607720875.6,286046999.5,N
1607720895.4,286046998.7,N
1607720915.2,286046998.2,N
1607720935.1,286046999.5,N
1607720936.0,286046999.5,N
1607720955.8,286046998.6,N
1607720975.6,286046998.1,N
1607720995.5,286046998.8,N
1607721015.3,286046998.2,N
1607721035.1,286046999.1,N
1607721055.9,286046999.2,N
1607721075.7,286046998.5,N
1607721095.5,286046998.5,N
1607721115.4,286046998.7,N
1607721135.2,286046999.0,N
1607721155.0,286046999.5,N
1607721155.9,286046999.5,N
1607721175.8,286046996.6,Y
1607721195.6,286046999.3,P
1607721215.4,286046999.1,P
1607721235.3,286046996.5,P
1607721255.1,286046996.9,N
1607721256.0,286046996.9,N
1607721275.8,286046999.2,N
1607721295.7,286046999.3,N
1607721315.5,286046999.1,N
1607721335.3,286046999.4,N
1607721355.2,286046998.9,N
1607721375.9,286046997.4,N
1607721395.7,286046997.2,N
1607721415.6,286046996.8,N
1607721435.4,286046997.4,N
1607721455.2,286046997.5,N
1607721475.1,286046994.9,Y
1607721476.0,286046994.9,P
1607721495.8,286046998.9,N
1607721515.6,286046997.1,N
1607721535.5,286046996.6,N
1607721555.3,286046996.6,N
1607721575.1,286046996.9,N
1607721595.9,286046996.8,N
1607721615.7,286046998.7,N
1607721635.5,286046996.5,Y
1607721655.4,286046998.1,P
1607721675.2,286047000.5,N
1607721695.0,286047001.1,N
1607721695.9,286047001.1,N
1607721715.8,286047000.9,N
1607721735.6,286046999.9,N
1607721755.4,286047000.3,N
1607721775.3,286047002.8,N
1607721795.1,286047002.8,N
1607721796.0,286047002.8,N
1607721815.8,286047000.6,N
1607721835.7,286047001.2,N
1607721855.5,286047000.4,N
1607721875.3,286047000.3,N
1607721895.2,286047001.1,N
1607721915.9,286047001.0,N
1607721935.7,286046998.4,N
1607721955.6,286046999.2,N
1607721975.4,286046999.5,N
1607721995.2,286046998.6,N
1607722015.1,286046998.3,N
1607722016.0,286046998.3,N
1607722035.8,286046998.1,N
1607722055.6,286046998.3,N
1607722075.5,286046998.4,N
1607722095.3,286046996.6,N
1607722115.1,286046999.2,N
1607722135.9,286046997.0,N
1607722155.7,286046996.6,N
1607722175.5,286046996.5,N
1607722195.4,286046995.4,N
1607722215.2,286046997.5,N
1607722235.0,286046995.0,N
1607722235.9,286046995.0,N
1607722255.8,286046995.3,N
1607722275.6,286046996.0,N
1607722295.4,286046995.7,N
1607722315.3,286046995.0,N
1607722335.1,286046995.0,N
1607722336.0,286046995.0,N
1607722355.8,286046996.2,N
1607722375.7,286046996.2,N
1607722395.5,286046995.8,N
1607722415.3,286046996.1,N
1607722435.2,286046996.2,N
1607722455.9,286046993.6,Y
1607722475.7,286046997.7,P
1607722495.6,286046997.3,P
1607722515.4,286046997.9,P
1607722535.2,286046997.4,Y
1607722555.1,286047001.2,P
1607722556.0,286047001.2,N
1607722575.8,286047000.8,N
1607722595.6,286046999.5,N
1607722615.5,286046999.3,N
1607722635.3,286046996.5,N
1607722655.1,286046999.4,N
1607722675.9,286046998.3,N
1607722695.7,286046996.5,N
1607722715.5,286046999.5,N
1607722735.4,286046998.6,N
1607722755.2,286046999.4,N
1607722775.0,286046998.2,N
1607722775.9,286046998.2,N
1607722795.8,286046999.5,N
1607722815.6,286046999.0,N
1607722835.4,286046999.4,N
1607722855.3,286046999.2,N
1607722875.1,286046998.8,N
1607722876.0,286046998.8,N
1607722895.8,286046999.6,N
1607722915.7,286046998.8,N
1607722935.5,286046999.4,N
1607722955.3,286046996.9,N
1607722975.2,286046997.3,N
1607722995.9,286046995.4,Y
1607723015.7,286046997.8,P
1607723035.6,286046997.4,P
1607723055.4,286046995.0,P
1607723075.2,286046997.1,N
1607723095.1,286046997.2,N
1607723096.0,286046997.2,N
1607723115.8,286046997.2,N
1607723135.6,286046997.9,N
1607723155.5,286046997.7,N
1607723175.3,286046995.1,Y
1607723195.1,286046998.7,P
1607723215.9,286046999.5,N
1607723235.7,286046999.4,N
1607723255.5,286046998.7,N
1607723275.4,286046999.0,N
1607723295.2,286046999.2,N
1607723315.0,286046999.2,N
1607723315.9,286046999.2,N
1607723335.8,286046996.5,Y
1607723355.6,286046997.2,P
1607723375.4,286046997.0,P
1607723395.3,286046997.7,N
1607723415.1,286046997.4,Y
1607723416.0,286046997.4,P
1607723435.8,286046998.4,P
1607723455.7,286046998.8,N
1607723475.5,286046998.6,N
1607723495.3,286046998.5,N
1607723515.2,286046999.1,N
1607723535.9,286046997.2,Y
1607723555.7,286047000.5,P
1607723575.6,286046998.2,N
1607723595.4,286047000.6,N
1607723615.2,286047001.0,N
1607723635.1,286046998.4,N
1607723636.0,286046998.4,N
1607723655.8,286047000.7,N
1607723675.6,286047000.6,N
1607723695.5,286047001.2,N
1607723715.3,286046996.5,N
1607723735.1,286046999.9,N
1607723755.9,286047000.8,N
1607723775.7,286047000.8,N
1607723795.5,286047000.6,N
1607723815.4,286047000.6,N
1607723835.2,286047001.1,N
1607723855.0,286046998.3,N
1607723855.9,286046998.3,N
1607723875.8,286046998.6,N
1607723895.6,286046998.8,N
1607723915.4,286047000.9,N
1607723935.3,286047001.2,N
1607723955.1,286047000.3,N
1607723956.0,286047000.3,N
1607723975.8,286046999.1,N
1607723995.7,286046998.5,N
